Weather History for KPBI - November, 2014

Change the Weather History Date:

Saturday, November 8, 2014

  Actual Average Record
Temperature  
Mean Temperature 72 °F 74 °F  
Max Temperature 80 °F 81 °F 90 °F (1958)
Min Temperature 63 °F 67 °F 44 °F (1923)
Degree Days  
Heating Degree Days 0 0  
Month to date heating degree days 8 0  
Since 1 July heating degree days 8 1  
Cooling Degree Days 7 9  
Month to date cooling degree days 51 77  
Year to date cooling degree days 3987 3698  
Growing Degree Days 22 (Base 50)    
Moisture  
Dew Point 67 °F    
Average Humidity 84    
Maximum Humidity 100    
Minimum Humidity 67    
Precipitation  
Precipitation 0.13 in 0.17 in 4.15 in (1982)
Month to date precipitation 0.15 1.38  
Year to date precipitation 57.74 55.58  
Snow  
Snow 0.00 in - - ()
Month to date snowfall 0.0  
Since 1 July snowfall 0.0  
Since 1 September snowfall 0.0  
Snow Depth 0.00 in    
Sea Level Pressure  
Sea Level Pressure 29.88 in    
Wind  
Wind Speed 7 mph (SE)    
Max Wind Speed 18 mph    
Max Gust Speed 21 mph    
Visibility 10 miles    
Events Rain    
T = Trace of Precipitation, MM = Missing Value Source: NWS Daily Summary

Daily Weather History Graph

Daily Weather History Graph

Search for Another Location

Airport or City:

Trip Planner

Search our weather history database for the weather conditions in past years. The results will help you decide how hot, cold, wet, or windy it might be!

Date:

Astronomy

Nov. 08, 2014 Rise Set
Actual Time 6:34 AM EST 5:33 PM EST
Civil Twilight 6:10 AM EST 5:57 PM EST
Nautical Twilight 5:42 AM EST 6:25 PM EST
Astronomical Twilight 5:15 AM EST 6:52 PM EST
Moon 7:16 PM EST (11/8) 8:06 AM EST (11/8)
Length of Visible Light 11h 46m
Length of Day
10h 58m
Waning Gibbous, 96% of the Moon is Illuminated
Nov 8
Waning Gibbous
Nov 14
Last Quarter
Nov 22
New
Nov 29
First Quarter
Dec 6
Full

Hourly Weather History & Observations

Time (EST) Temp. Heat Index Dew Point Humidity Pressure Visibility Wind Dir Wind Speed Gust Speed Precip Events Conditions
12:53 AM 66.9 °F - 66.0 °F 97% 29.92 in 10.0 mi NW 5.8 mph - N/A   Mostly Cloudy
1:53 AM 64.9 °F - 64.0 °F 97% 29.92 in 10.0 mi NW 4.6 mph - N/A   Partly Cloudy
2:53 AM 64.9 °F - 64.0 °F 97% 29.90 in 10.0 mi NW 3.5 mph - N/A   Partly Cloudy
3:53 AM 64.0 °F - 64.0 °F 100% 29.89 in 10.0 mi Calm Calm - N/A   Scattered Clouds
4:53 AM 64.0 °F - 63.0 °F 96% 29.89 in 10.0 mi Calm Calm - N/A   Scattered Clouds
5:53 AM 64.0 °F - 63.0 °F 96% 29.90 in 10.0 mi Calm Calm - N/A   Scattered Clouds
6:53 AM 63.0 °F - 63.0 °F 100% 29.91 in 10.0 mi Calm Calm - N/A   Mostly Cloudy
7:53 AM 66.9 °F - 64.9 °F 93% 29.92 in 10.0 mi Calm Calm - N/A   Mostly Cloudy
8:53 AM 75.9 °F - 66.9 °F 74% 29.93 in 10.0 mi ENE 5.8 mph - N/A   Mostly Cloudy
9:02 AM 75.9 °F - 66.9 °F 74% 29.93 in 10.0 mi ENE 6.9 mph - N/A   Mostly Cloudy
9:53 AM 77.0 °F - 66.9 °F 71% 29.94 in 10.0 mi ESE 6.9 mph - N/A   Mostly Cloudy
10:53 AM 78.1 °F - 70.0 °F 76% 29.92 in 10.0 mi SE 11.5 mph - N/A   Mostly Cloudy
11:53 AM 77.0 °F - 68.0 °F 74% 29.89 in 10.0 mi ESE 11.5 mph - N/A   Mostly Cloudy
12:53 PM 79.0 °F - 68.0 °F 69% 29.86 in 10.0 mi ESE 13.8 mph - 0.00 in   Mostly Cloudy
1:53 PM 79.0 °F - 68.0 °F 69% 29.84 in 10.0 mi SE 12.7 mph - N/A   Mostly Cloudy
2:08 PM 78.1 °F - 66.9 °F 68% 29.84 in 10.0 mi ESE 13.8 mph - N/A   Mostly Cloudy
2:53 PM 80.1 °F 82.7 °F 68.0 °F 67% 29.84 in 10.0 mi SE 15.0 mph - N/A   Mostly Cloudy
3:33 PM 79.0 °F - 68.0 °F 69% 29.83 in 10.0 mi SE 16.1 mph - N/A   Mostly Cloudy
3:53 PM 78.1 °F - 66.9 °F 68% 29.83 in 10.0 mi ESE 13.8 mph - N/A   Mostly Cloudy
4:53 PM 77.0 °F - 68.0 °F 74% 29.84 in 10.0 mi SSE 12.7 mph - N/A   Mostly Cloudy
5:53 PM 75.9 °F - 66.9 °F 74% 29.85 in 10.0 mi South 9.2 mph - N/A   Mostly Cloudy
6:53 PM 75.0 °F - 69.1 °F 82% 29.86 in 10.0 mi South 9.2 mph - 0.04 in Rain Light Rain
7:53 PM 75.9 °F - 69.1 °F 79% 29.86 in 10.0 mi South 10.4 mph - 0.02 in   Mostly Cloudy
8:53 PM 73.0 °F - 69.1 °F 87% 29.87 in 10.0 mi SSW 8.1 mph - 0.07 in   Mostly Cloudy
9:53 PM 70.0 °F - 68.0 °F 93% 29.87 in 10.0 mi West 6.9 mph - N/A   Mostly Cloudy
10:53 PM 70.0 °F - 68.0 °F 93% 29.87 in 10.0 mi West 3.5 mph - N/A   Mostly Cloudy
11:53 PM 68.0 °F - 66.9 °F 96% 29.86 in 10.0 mi West 4.6 mph - N/A   Mostly Cloudy